Simultaneous Nadir Overpasses (SNOs) Predictions

Prediction of SNOs between GOES-16 and LANDSAT-8 Satellite Orbit:

Table of predicted SNOs for the next 14.0 days since TLE Epoch: 2/6/2021
Index Date Time (GOES-16) GOES-16 Lat,Lon LANDSAT-8 Lat,Lon Distance(km) Time Diff (sec)
1 02/07/2021 15:03:10 -0.00, -75.20 -0.57, -72.42 315.57 80
2 02/08/2021 03:24:34 0.00, -75.17 -0.54, -77.61 278.06 80
3 02/10/2021 03:09:43 0.00, -75.16 0.14, -74.66 57.49 80
4 02/12/2021 02:57:31 -0.00, -75.16 0.75, -71.70 393.73 80
5 02/12/2021 15:18:46 0.00, -75.19 0.37, -76.86 189.61 80
6 02/14/2021 15:09:15 0.00, -75.20 -0.31, -73.91 147.94 80
7 02/15/2021 03:30:38 -0.00, -75.18 -0.86, -79.09 444.68 80
8 02/16/2021 14:57:03 -0.00, -75.22 -0.93, -70.95 486.10 80
9 02/17/2021 03:18:27 -0.00, -75.20 -0.18, -76.14 106.38 80
10 02/19/2021 03:03:35 -0.00, -75.23 0.44, -73.18 232.39 80
11 02/19/2021 15:24:50 0.00, -75.26 0.68, -78.34 350.69 80
